EZY4939 LFPO-LIML

Flight info

Callsign EZY4939
Flight time 1h 8m
Altitude 31000
Route BUBLI DCT LUVAL DCT SHARA DCT DEVDI DCT RIPUS DCT GERSA DCT SOSON DCT ODINA
Aircraft A320/M-SDE3FGHIRWY/LB1

Departure

Time 2026-05-01 10:06
Airport Paris-Orly Airport (LFPO)

Arrival

Time 2026-05-01 11:14
Airport Milano Linate Airport (LIML)
Time Latitude Longitude Altitude Speed Heading
2026-05-01 09:37 48.73119 2.35976 284 ft 0 kts 171°
2026-05-01 09:52 48.73128 2.35974 285 ft 2 kts 171°
2026-05-01 09:52 48.73143 2.35970 284 ft 2 kts 171°
2026-05-01 09:53 48.73158 2.35967 285 ft 2 kts 171°
2026-05-01 09:53 48.73174 2.35963 284 ft 2 kts 182°
2026-05-01 09:53 48.73188 2.35970 284 ft 2 kts 211°
2026-05-01 09:53 48.73198 2.35983 284 ft 0 kts 234°
2026-05-01 09:54 48.73201 2.35991 285 ft 1 kts 238°
2026-05-01 09:54 48.73202 2.35993 285 ft 0 kts 238°
2026-05-01 09:57 48.73200 2.35988 284 ft 1 kts 238°
2026-05-01 09:57 48.73193 2.35970 284 ft 2 kts 238°
2026-05-01 09:57 48.73180 2.35939 284 ft 4 kts 237°
2026-05-01 09:57 48.73161 2.35896 284 ft 5 kts 234°
2026-05-01 09:58 48.73135 2.35842 284 ft 6 kts 236°
2026-05-01 09:58 48.73105 2.35768 283 ft 9 kts 238°
2026-05-01 09:58 48.73063 2.35665 281 ft 12 kts 237°
2026-05-01 09:58 48.73008 2.35559 279 ft 13 kts 218°
2026-05-01 09:59 48.72915 2.35534 279 ft 13 kts 168°
2026-05-01 09:59 48.72826 2.35569 279 ft 12 kts 164°
2026-05-01 09:59 48.72739 2.35606 278 ft 13 kts 164°
2026-05-01 09:59 48.72651 2.35644 278 ft 12 kts 164°
2026-05-01 10:00 48.72567 2.35679 278 ft 12 kts 163°
2026-05-01 10:00 48.72498 2.35699 279 ft 9 kts 191°
2026-05-01 10:00 48.72446 2.35636 278 ft 6 kts 218°
2026-05-01 10:00 48.72396 2.35626 278 ft 7 kts 169°
2026-05-01 10:01 48.72338 2.35637 278 ft 9 kts 188°
2026-05-01 10:01 48.72271 2.35609 278 ft 10 kts 195°
2026-05-01 10:01 48.72200 2.35611 278 ft 9 kts 165°
2026-05-01 10:01 48.72131 2.35640 279 ft 11 kts 163°
2026-05-01 10:02 48.72065 2.35689 278 ft 9 kts 140°
2026-05-01 10:02 48.72031 2.35748 280 ft 2 kts 125°
2026-05-01 10:02 48.72030 2.35751 280 ft 0 kts 124°
2026-05-01 10:04 48.72023 2.35765 280 ft 2 kts 124°
2026-05-01 10:04 48.72008 2.35803 281 ft 5 kts 122°
2026-05-01 10:05 48.71988 2.35848 281 ft 5 kts 124°
2026-05-01 10:05 48.71960 2.35916 281 ft 8 kts 110°
2026-05-01 10:05 48.71963 2.36000 281 ft 2 kts 75°
2026-05-01 10:05 48.71974 2.36061 281 ft 29 kts 75°
2026-05-01 10:06 48.72105 2.36761 283 ft 105 kts 73°
2026-05-01 10:06 48.72361 2.38149 311 ft 162 kts 75°
2026-05-01 10:06 48.72649 2.39813 925 ft 164 kts 75°
2026-05-01 10:06 48.72940 2.41484 1671 ft 166 kts 73°
2026-05-01 10:07 48.73260 2.43161 2322 ft 169 kts 73°
2026-05-01 10:07 48.73602 2.44945 2726 ft 185 kts 73°
2026-05-01 10:07 48.73969 2.46902 3147 ft 201 kts 75°
2026-05-01 10:07 48.74255 2.49078 3493 ft 224 kts 83°
2026-05-01 10:08 48.74321 2.54195 4488 ft 259 kts 90°
2026-05-01 10:08 48.74343 2.57015 5054 ft 276 kts 85°
2026-05-01 10:08 48.74542 2.59911 5762 ft 282 kts 81°
2026-05-01 10:09 48.74828 2.62856 6574 ft 283 kts 81°
2026-05-01 10:09 48.75124 2.65795 7371 ft 284 kts 82°
2026-05-01 10:09 48.75420 2.68740 8100 ft 289 kts 83°
2026-05-01 10:09 48.75668 2.71746 8966 ft 290 kts 85°
2026-05-01 10:10 48.75894 2.74789 9784 ft 293 kts 85°
2026-05-01 10:10 48.76118 2.77834 10530 ft 297 kts 85°
2026-05-01 10:10 48.76606 2.84350 11379 ft 328 kts 85°
2026-05-01 10:11 48.76872 2.87873 11803 ft 343 kts 85°
2026-05-01 10:11 48.77146 2.91491 12531 ft 347 kts 85°
2026-05-01 10:11 48.77422 2.95113 13329 ft 348 kts 85°
2026-05-01 10:11 48.77744 2.98741 14075 ft 351 kts 82°
2026-05-01 10:12 48.78171 3.02412 14793 ft 352 kts 82°
2026-05-01 10:12 48.78459 3.04822 15228 ft 355 kts 82°
2026-05-01 10:12 48.79491 3.13461 16691 ft 362 kts 82°
2026-05-01 10:13 48.79939 3.17224 17310 ft 366 kts 82°
2026-05-01 10:13 48.80391 3.21036 17944 ft 369 kts 82°
2026-05-01 10:13 48.80846 3.24896 18565 ft 372 kts 82°
2026-05-01 10:14 48.81743 3.32607 19273 ft 375 kts 84°
2026-05-01 10:14 48.82016 3.36525 19401 ft 376 kts 89°
2026-05-01 10:14 48.82034 3.40527 19968 ft 377 kts 94°
2026-05-01 10:14 48.81844 3.44435 20600 ft 375 kts 97°
2026-05-01 10:15 48.81598 3.48356 21097 ft 378 kts 97°
2026-05-01 10:15 48.81340 3.52310 21570 ft 382 kts 97°
2026-05-01 10:15 48.81074 3.56358 22055 ft 385 kts 97°
2026-05-01 10:15 48.80812 3.60378 22554 ft 388 kts 97°
2026-05-01 10:16 48.80549 3.64427 23040 ft 389 kts 97°
2026-05-01 10:16 48.80282 3.68502 23503 ft 392 kts 98°
2026-05-01 10:16 48.79738 3.76773 24466 ft 397 kts 97°
2026-05-01 10:17 48.79461 3.80967 24922 ft 399 kts 97°
2026-05-01 10:17 48.78903 3.89352 25786 ft 405 kts 97°
2026-05-01 10:17 48.78619 3.93598 26223 ft 405 kts 97°
2026-05-01 10:18 48.78040 4.02137 27031 ft 412 kts 97°
2026-05-01 10:18 48.77748 4.06413 27443 ft 413 kts 97°
2026-05-01 10:18 48.77369 4.10730 27807 ft 415 kts 103°
2026-05-01 10:19 48.76546 4.14931 28163 ft 417 kts 112°
2026-05-01 10:19 48.75285 4.18851 28510 ft 420 kts 121°
2026-05-01 10:19 48.73654 4.22543 28856 ft 423 kts 125°
2026-05-01 10:20 48.70206 4.29853 29504 ft 428 kts 125°
2026-05-01 10:20 48.68469 4.33520 29862 ft 430 kts 125°
2026-05-01 10:20 48.66739 4.37178 30222 ft 432 kts 125°
2026-05-01 10:20 48.64979 4.40901 30560 ft 434 kts 125°
2026-05-01 10:21 48.63226 4.44609 30880 ft 436 kts 125°
2026-05-01 10:21 48.59692 4.52080 31337 ft 439 kts 125°
2026-05-01 10:22 48.54376 4.63286 31362 ft 438 kts 125°
2026-05-01 10:23 48.49057 4.74449 31277 ft 437 kts 126°
2026-05-01 10:23 48.43707 4.85631 31264 ft 438 kts 126°
2026-05-01 10:24 48.36554 5.00508 31282 ft 439 kts 126°
2026-05-01 10:25 48.29952 5.15888 31292 ft 441 kts 116°
2026-05-01 10:26 48.27580 5.24396 31292 ft 441 kts 109°
2026-05-01 10:27 48.24014 5.41949 31294 ft 442 kts 106°
2026-05-01 10:28 48.21343 5.55142 31295 ft 442 kts 106°
2026-05-01 10:28 48.18635 5.68406 31288 ft 443 kts 107°
2026-05-01 10:29 48.15915 5.81641 31291 ft 444 kts 106°
2026-05-01 10:30 48.12270 5.99251 31299 ft 444 kts 106°
2026-05-01 10:31 48.08579 6.16912 31304 ft 445 kts 106°
2026-05-01 10:32 48.05791 6.30142 31305 ft 445 kts 106°
2026-05-01 10:33 48.02051 6.47765 31321 ft 445 kts 106°
2026-05-01 10:34 47.99213 6.61023 31341 ft 445 kts 106°
2026-05-01 10:34 47.97219 6.69764 31349 ft 446 kts 110°
2026-05-01 10:35 47.93723 6.82728 31354 ft 446 kts 111°
2026-05-01 10:35 47.91381 6.91343 31355 ft 445 kts 110°
2026-05-01 10:36 47.87869 7.04209 31349 ft 446 kts 110°
2026-05-01 10:37 47.85512 7.12809 31336 ft 446 kts 110°
2026-05-01 10:37 47.81962 7.25702 31319 ft 447 kts 110°
2026-05-01 10:38 47.79602 7.34234 31318 ft 447 kts 110°
2026-05-01 10:38 47.77207 7.42853 31323 ft 447 kts 110°
2026-05-01 10:39 47.74643 7.51347 31326 ft 449 kts 114°
2026-05-01 10:39 47.71483 7.59421 31336 ft 451 kts 120°
2026-05-01 10:40 47.67821 7.66999 31343 ft 452 kts 124°
2026-05-01 10:40 47.64042 7.74587 31359 ft 453 kts 124°
2026-05-01 10:41 47.60275 7.82143 31364 ft 453 kts 124°
2026-05-01 10:42 47.54625 7.93447 31354 ft 453 kts 124°
2026-05-01 10:42 47.50829 8.01017 31346 ft 453 kts 124°
2026-05-01 10:43 47.47065 8.08501 31339 ft 453 kts 124°
2026-05-01 10:43 47.43284 8.15995 31339 ft 453 kts 124°
2026-05-01 10:44 47.39496 8.23482 31344 ft 453 kts 124°
2026-05-01 10:44 47.35676 8.31011 31345 ft 453 kts 123°
2026-05-01 10:45 47.31889 8.38463 31348 ft 453 kts 123°
2026-05-01 10:45 47.27625 8.45351 31350 ft 459 kts 138°
2026-05-01 10:46 47.21962 8.49912 31357 ft 467 kts 158°
2026-05-01 10:46 47.15490 8.51631 31370 ft 473 kts 172°
2026-05-01 10:47 47.08872 8.52477 31380 ft 473 kts 172°
2026-05-01 10:47 47.02321 8.53398 31385 ft 473 kts 172°
2026-05-01 10:48 46.95725 8.54355 31302 ft 474 kts 172°
2026-05-01 10:48 46.89095 8.55312 31060 ft 475 kts 171°
2026-05-01 10:48 46.85782 8.55789 30885 ft 476 kts 171°
2026-05-01 10:49 46.82476 8.56263 30686 ft 476 kts 171°
2026-05-01 10:49 46.79181 8.56735 30460 ft 477 kts 171°
2026-05-01 10:49 46.75871 8.57209 30188 ft 477 kts 171°
2026-05-01 10:49 46.72566 8.57681 30013 ft 477 kts 171°
2026-05-01 10:50 46.69239 8.58155 29939 ft 477 kts 171°
2026-05-01 10:50 46.62648 8.59092 29437 ft 474 kts 171°
2026-05-01 10:50 46.59390 8.59555 29047 ft 466 kts 171°
2026-05-01 10:51 46.56141 8.60018 28707 ft 463 kts 171°
2026-05-01 10:51 46.52944 8.60474 28342 ft 459 kts 171°
2026-05-01 10:51 46.49783 8.60926 27904 ft 454 kts 171°
2026-05-01 10:51 46.46642 8.61373 27440 ft 450 kts 171°
2026-05-01 10:52 46.43518 8.61816 26947 ft 447 kts 171°
2026-05-01 10:52 46.40422 8.62255 26442 ft 443 kts 171°
2026-05-01 10:52 46.37335 8.62691 25928 ft 439 kts 171°
2026-05-01 10:52 46.34307 8.63119 25433 ft 436 kts 171°
2026-05-01 10:53 46.31311 8.63541 24964 ft 432 kts 171°
2026-05-01 10:53 46.28325 8.63961 24477 ft 428 kts 171°
2026-05-01 10:53 46.25375 8.64374 23973 ft 423 kts 171°
2026-05-01 10:53 46.22437 8.64788 23435 ft 418 kts 171°
2026-05-01 10:54 46.19529 8.65195 22976 ft 417 kts 172°
2026-05-01 10:54 46.16650 8.65597 22534 ft 413 kts 172°
2026-05-01 10:54 46.13786 8.66000 22121 ft 410 kts 171°
2026-05-01 10:54 46.10999 8.66742 21706 ft 403 kts 162°
2026-05-01 10:55 46.08388 8.68074 21356 ft 396 kts 153°
2026-05-01 10:55 46.05958 8.69852 20962 ft 392 kts 148°
2026-05-01 10:55 46.03549 8.71763 20503 ft 388 kts 147°
2026-05-01 10:55 46.01206 8.73637 20021 ft 383 kts 147°
2026-05-01 10:56 45.98864 8.75498 19514 ft 381 kts 147°
2026-05-01 10:56 45.96582 8.77299 19009 ft 379 kts 147°
2026-05-01 10:56 45.94282 8.79104 18499 ft 377 kts 147°
2026-05-01 10:56 45.91955 8.80922 17984 ft 374 kts 147°
2026-05-01 10:57 45.89690 8.82691 17484 ft 372 kts 147°
2026-05-01 10:57 45.87428 8.84453 17083 ft 365 kts 147°
2026-05-01 10:57 45.85231 8.86159 16871 ft 353 kts 147°
2026-05-01 10:57 45.83101 8.87811 16719 ft 339 kts 147°
2026-05-01 10:58 45.81030 8.89416 16569 ft 327 kts 146°
2026-05-01 10:58 45.79079 8.90930 16391 ft 316 kts 146°
2026-05-01 10:58 45.77140 8.92435 16012 ft 313 kts 146°
2026-05-01 10:58 45.75233 8.93916 15635 ft 313 kts 146°
2026-05-01 10:59 45.73306 8.95410 15259 ft 312 kts 146°
2026-05-01 10:59 45.71377 8.96903 14880 ft 311 kts 146°
2026-05-01 10:59 45.69480 8.98369 14501 ft 309 kts 147°
2026-05-01 10:59 45.67582 8.99835 14115 ft 306 kts 147°
2026-05-01 11:00 45.65710 9.01276 13752 ft 303 kts 147°
2026-05-01 11:00 45.63834 9.02719 13382 ft 298 kts 147°
2026-05-01 11:00 45.62002 9.04128 13019 ft 296 kts 147°
2026-05-01 11:00 45.60194 9.05515 12659 ft 293 kts 147°
2026-05-01 11:01 45.58395 9.06898 12302 ft 292 kts 147°
2026-05-01 11:01 45.56601 9.08275 11946 ft 289 kts 148°
2026-05-01 11:01 45.54819 9.09638 11604 ft 286 kts 148°
2026-05-01 11:01 45.53074 9.10973 11422 ft 278 kts 148°
2026-05-01 11:02 45.51344 9.12205 10938 ft 282 kts 156°
2026-05-01 11:02 45.49418 9.12897 10567 ft 283 kts 171°
2026-05-01 11:02 45.47451 9.13162 10218 ft 280 kts 174°
2026-05-01 11:02 45.45506 9.13348 9889 ft 278 kts 174°
2026-05-01 11:03 45.43570 9.13530 9597 ft 275 kts 174°
2026-05-01 11:03 45.41660 9.13722 9295 ft 273 kts 174°
2026-05-01 11:03 45.39764 9.13924 8994 ft 271 kts 174°
2026-05-01 11:03 45.37894 9.14129 8698 ft 268 kts 174°
2026-05-01 11:04 45.36018 9.14338 8384 ft 266 kts 174°
2026-05-01 11:04 45.34199 9.14546 8094 ft 263 kts 174°
2026-05-01 11:04 45.32373 9.14755 7801 ft 261 kts 174°
2026-05-01 11:04 45.30541 9.14962 7497 ft 259 kts 175°
2026-05-01 11:05 45.28753 9.15162 7187 ft 257 kts 175°
2026-05-01 11:05 45.26957 9.15362 6865 ft 255 kts 175°
2026-05-01 11:05 45.25206 9.15556 6665 ft 248 kts 175°
2026-05-01 11:05 45.23481 9.15747 6512 ft 240 kts 175°
2026-05-01 11:06 45.21830 9.15930 6361 ft 233 kts 175°
2026-05-01 11:06 45.20234 9.16104 6207 ft 226 kts 175°
2026-05-01 11:06 45.18677 9.16379 5960 ft 224 kts 163°
2026-05-01 11:07 45.15840 9.18133 5415 ft 220 kts 141°
2026-05-01 11:07 45.15034 9.19846 5218 ft 210 kts 97°
2026-05-01 11:07 45.15170 9.21832 5072 ft 199 kts 66°
2026-05-01 11:07 45.15945 9.23402 4890 ft 193 kts 39°
2026-05-01 11:08 45.17053 9.24484 4633 ft 192 kts 32°
2026-05-01 11:08 45.18180 9.25492 4380 ft 192 kts 32°
2026-05-01 11:08 45.20409 9.27576 3875 ft 191 kts 34°
2026-05-01 11:09 45.21515 9.28644 3631 ft 191 kts 34°
2026-05-01 11:09 45.22672 9.29530 3377 ft 190 kts 15°
2026-05-01 11:09 45.23983 9.29808 3193 ft 189 kts
2026-05-01 11:10 45.26659 9.29638 3182 ft 192 kts 355°
2026-05-01 11:10 45.27972 9.29488 3272 ft 184 kts 355°
2026-05-01 11:10 45.29226 9.29347 3134 ft 174 kts 355°
2026-05-01 11:10 45.30409 9.29219 2923 ft 169 kts 355°
2026-05-01 11:11 45.31571 9.29095 2679 ft 160 kts 355°
2026-05-01 11:11 45.32680 9.28977 2467 ft 162 kts 355°
2026-05-01 11:11 45.33818 9.28856 2249 ft 163 kts 355°
2026-05-01 11:11 45.34940 9.28735 2057 ft 163 kts 356°
2026-05-01 11:12 45.36070 9.28614 1826 ft 162 kts 356°
2026-05-01 11:12 45.37189 9.28494 1588 ft 156 kts 356°
2026-05-01 11:12 45.38241 9.28379 1362 ft 146 kts 356°
2026-05-01 11:12 45.39238 9.28271 1163 ft 140 kts 357°
2026-05-01 11:13 45.40210 9.28168 994 ft 140 kts 357°
2026-05-01 11:13 45.41196 9.28063 806 ft 141 kts 357°
2026-05-01 11:13 45.42178 9.27954 624 ft 141 kts 357°
2026-05-01 11:13 45.43175 9.27845 445 ft 140 kts 357°
2026-05-01 11:14 45.44142 9.27743 348 ft 132 kts 357°
2026-05-01 11:14 45.44949 9.27674 354 ft 91 kts 355°
2026-05-01 11:14 45.45332 9.27686 350 ft 28 kts 23°
2026-05-01 11:14 45.45396 9.27728 350 ft 0 kts 27°
2026-05-01 11:15 45.45406 9.27736 350 ft 2 kts 26°
2026-05-01 11:15 45.45426 9.27751 350 ft 3 kts 34°
2026-05-01 11:15 45.45451 9.27782 350 ft 6 kts 44°
2026-05-01 11:15 45.45495 9.27814 350 ft 7 kts
2026-05-01 11:16 45.45556 9.27817 351 ft 10 kts
2026-05-01 11:16 45.45628 9.27821 352 ft 10 kts
2026-05-01 11:16 45.45699 9.27821 354 ft 10 kts 360°
2026-05-01 11:16 45.45769 9.27821 355 ft 10 kts
2026-05-01 11:17 45.45827 9.27822 356 ft 5 kts
2026-05-01 11:17 45.45851 9.27846 358 ft 2 kts 65°
2026-05-01 11:17 45.45853 9.27863 358 ft 1 kts 80°
2026-05-01 11:17 45.45855 9.27878 358 ft 1 kts 87°
2026-05-01 11:18 45.45855 9.27893 359 ft 1 kts 89°
2026-05-01 11:18 45.45855 9.27900 359 ft 0 kts 89°